Probability
61 61 55 45 42 35 32 23 23 16 13 13 13 10 10 10 10 10 10 6 10 6 3 3 3 0 0 0 0 0 0 0 0 0 0 0 0 0 0 0 0 0 0
68 58 55 52 35 35 26 26 19 19 19 13 10 10 10 10 10 10 10 6 6 3 3 3 3 3 0 0 0 0 0 0 0 0 0 0 0 0 0 0 0 0 0
71 61 55 55 39 35 29 26 23 19 19 10 10 10 10 6 6 6 6 6 6 3 3 3 3 3 3 0 0 0 0 0 0 0 0 0 0 0 0 0 0 0 0
71 58 58 55 42 39 32 26 23 23 19 10 10 13 10 10 6 6 6 6 3 3 3 3 3 3 3 3 0 0 0 0 0 0 0 0 0 0 0 0 0 0 0
71 61 61 52 45 35 32 23 23 19 13 10 13 13 10 10 10 3 3 3 3 3 3 3 3 3 3 0 0 0 0 0 0 0 0 0 0 0 0 0 0 0 0
71 61 55 52 42 32 23 16 19 16 10 10 6 3 6 3 0 0 0 0 0 3 3 3 6 3 0 0 0 0 0 0 0 0 0 0 0 0 3 0 0 0 0
65 58 48 42 35 29 19 16 13 6 6 13 10 10 3 0 0 0 0 0 0 0 3 13 0 0 0 0 0 0 0 0 0 0 0 0 0 0 3 3 3 0 0
61 58 48 42 26 26 19 13 13 10 10 16 13 10 13 0 0 0 0 0 0 0 0 0 6 6 0 0 0 0 0 0 0 0 0 0 0 0 0 3 3 3 0
58 52 48 29 29 29 16 19 16 16 19 16 16 13 13 10 0 0 0 0 0 0 0 0 3 3 0 0 0 0 0 0 0 0 0 0 0 0 0 0 0 0 0
39 35 35 19 19 16 16 19 10 16 13 10 0 0 0 0 0 0 0 0 0 0 6 6 0 0 0 0 0 0 0 0 0 0 0 0 0 0 0 0 0 0 0
23 26 26 23 19 16 16 16 19 10 0 0 0 0 3 0 0 0 0 0 0 0 0 3 0 0 0 0 0 0 0 0 0 0 0 0 0 0 0 0 0 0 0
16 19 19 19 13 3 10 10 10 6 3 0 0 0 0 0 0 0 0 0 0 0 0 3 3 0 0 0 0 0 0 0 0 0 0 0 0 0 3 0 0 0 0
10 10 13 10 10 3 6 10 3 3 0 0 0 0 0 0 0 0 0 0 0 0 0 0 0 0 0 0 0 0 0 0 0 0 0 0 0 0 0 3 0 0 0
10 10 10 10 10 3 0 0 0 0 0 0 3 0 0 0 0 0 0 0 0 0 0 0 0 0 0 0 0 0 0 0 0 0 0 0 0 0 0 0 0 0 0
10 10 10 6 6 6 0 3 0 0 0 0 0 0 0 0 0 0 0 0 0 0 0 0 0 3 0 0 0 0 0 0 0 0 0 0 0 0 0 0 0 0 0
6 6 3 3 0 0 0 0 0 0 0 0 0 0 0 0 0 0 0 0 0 0 0 0 0 0 0 0 3 3 0 0 0 0 0 0 0 0 0 3 0 0 0
0 0 0 0 0 0 0 0 0 0 0 0 0 0 0 0 0 0 0 0 0 0 0 0 0 0 0 0 3 3 3 3 3 3 0 0 0 0 0 0 0 0 0
0 0 0 0 0 0 0 0 0 0 0 0 0 0 0 0 0 0 0 0 0 0 0 0 0 0 0 0 0 0 0 0 0 3 0 0 0 0 0 0 0 0 0
0 0 0 0 0 0 0 0 0 0 0 0 0 0 0 0 0 0 0 0 0 0 0 0 0 0 0 0 0 0 0 0 0 0 6 3 0 0 0 0 0 0 0
0 0 0 0 0 0 0 0 0 0 0 0 0 0 0 0 0 0 0 0 0 0 0 0 0 0 0 0 0 0 0 0 0 3 3 3 3 0 0 0 0 0 0
0 0 0 0 0 0 0 0 0 0 0 0 0 0 0 0 0 0 0 0 0 0 0 0 0 0 0 0 0 0 0 0 0 3 0 0 0 0 0 0 0 0 0
0 0 0 0 0 0 0 0 0 0 0 0 0 0 0 0 0 0 0 0 0 0 0 0 0 0 0 0 0 0 0 0 0 0 0 0 0 0 0 0 0 0 0
0 0 0 0 0 0 0 0 0 0 0 0 0 0 0 0 0 0 0 0 0 0 0 0 0 0 0 0 0 0 0 0 0 0 0 0 0 0 0 0 0 0 0
0 0 0 0 0 0 0 0 0 0 0 0 0 0 0 0 0 0 0 0 0 0 0 0 0 0 0 0 0 0 0 0 0 0 0 0 0 0 0 0 0 0 0
0 0 0 0 0 0 0 0 0 0 0 0 0 0 0 0 0 0 0 0 0 0 0 0 0 0 0 0 0 0 0 0 0 0 0 0 0 0 0 0 0 0 0
0 0 0 0 0 0 0 0 0 0 0 0 0 0 0 0 0 0 0 0 0 0 0 0 0 0 0 0 0 0 0 0 0 0 0 0 0 0 0 0 0 0 0
Height
5859 5860 5862 5862 5863 5864 5864 5865 5865 5865 5864 5864 5863 5862 5861 5859 5858 5856 5854 5852 5849 5847 5844 5841 5839 5836 5833 5830 5827 5824 5821 5819 5816 5812 5810 5808 5806 5804 5803 5802 5801 5800 5800
5857 5858 5858 5859 5860 5860 5861 5861 5861 5860 5860 5859 5858 5857 5856 5854 5852 5850 5848 5846 5844 5841 5838 5835 5833 5830 5827 5824 5821 5817 5814 5812 5809 5805 5802 5799 5797 5795 5794 5792 5791 5790 5789
5853 5854 5855 5855 5856 5856 5856 5856 5856 5856 5855 5854 5853 5851 5850 5848 5847 5844 5842 5840 5837 5834 5832 5829 5826 5823 5819 5816 5813 5810 5807 5804 5801 5798 5794 5791 5789 5786 5784 5783 5781 5780 5779
5849 5850 5851 5851 5851 5851 5851 5851 5851 5850 5849 5848 5847 5845 5844 5842 5840 5838 5835 5833 5830 5827 5824 5821 5818 5815 5812 5809 5805 5802 5799 5796 5792 5789 5786 5783 5780 5777 5775 5773 5771 5770 5769
5845 5846 5846 5846 5846 5846 5845 5845 5844 5844 5843 5842 5840 5839 5837 5835 5832 5830 5828 5825 5822 5819 5816 5813 5810 5807 5804 5800 5797 5794 5790 5787 5783 5780 5777 5774 5771 5768 5765 5763 5761 5759 5758
5839 5840 5840 5840 5840 5840 5839 5838 5838 5837 5836 5834 5833 5831 5829 5827 5825 5822 5820 5817 5814 5811 5808 5805 5802 5799 5795 5792 5788 5784 5781 5778 5774 5771 5768 5764 5761 5758 5755 5752 5750 5749 5747
5834 5834 5834 5833 5833 5833 5832 5831 5830 5829 5828 5826 5824 5822 5820 5818 5816 5813 5811 5808 5805 5802 5799 5796 5793 5789 5786 5782 5779 5775 5771 5767 5764 5761 5758 5754 5751 5747 5745 5742 5740 5738 5736
5827 5827 5827 5826 5826 5825 5824 5823 5821 5820 5819 5817 5815 5813 5811 5809 5807 5804 5801 5798 5795 5792 5789 5786 5783 5779 5775 5772 5768 5764 5761 5757 5753 5750 5747 5744 5740 5737 5734 5731 5729 5726 5725
5819 5819 5819 5818 5817 5816 5815 5814 5813 5811 5810 5807 5806 5804 5802 5799 5797 5794 5790 5788 5785 5782 5779 5775 5772 5769 5765 5761 5757 5753 5750 5746 5742 5739 5735 5732 5729 5726 5722 5720 5717 5715 5713
5810 5810 5810 5809 5808 5807 5806 5805 5803 5801 5800 5798 5796 5794 5791 5789 5786 5783 5779 5776 5774 5771 5767 5764 5760 5757 5753 5749 5745 5742 5738 5734 5730 5726 5723 5720 5717 5714 5710 5708 5705 5703 5701
5801 5801 5801 5800 5798 5797 5796 5794 5793 5791 5789 5787 5785 5783 5780 5778 5775 5771 5768 5765 5761 5758 5755 5751 5748 5744 5741 5736 5732 5729 5726 5721 5717 5714 5710 5707 5704 5701 5698 5695 5693 5691 5689
5791 5791 5790 5789 5788 5786 5785 5783 5782 5780 5778 5776 5773 5771 5768 5765 5762 5759 5755 5752 5749 5745 5742 5738 5735 5731 5727 5723 5719 5716 5711 5707 5704 5701 5698 5694 5691 5688 5685 5683 5681 5679 5677
5781 5780 5779 5777 5776 5775 5774 5772 5770 5768 5766 5763 5761 5759 5755 5752 5749 5745 5742 5739 5735 5731 5728 5725 5721 5716 5712 5709 5705 5701 5696 5693 5689 5686 5684 5681 5677 5675 5672 5670 5668 5666 5664
5771 5770 5768 5766 5764 5763 5762 5760 5758 5756 5753 5751 5748 5745 5742 5739 5735 5731 5728 5724 5720 5716 5713 5709 5706 5701 5697 5693 5689 5685 5682 5678 5674 5671 5669 5666 5663 5660 5658 5656 5654 5652 5651
5760 5758 5756 5755 5753 5751 5749 5747 5745 5742 5740 5737 5734 5730 5727 5725 5721 5717 5712 5709 5704 5701 5697 5693 5689 5685 5681 5677 5673 5669 5666 5662 5659 5656 5654 5651 5649 5646 5644 5642 5641 5639 5638
5749 5747 5745 5743 5741 5739 5737 5735 5732 5729 5726 5722 5719 5716 5712 5709 5705 5701 5696 5692 5688 5684 5679 5676 5672 5668 5664 5660 5656 5653 5650 5647 5644 5641 5639 5637 5635 5632 5631 5629 5628 5626 5626
5738 5736 5733 5731 5729 5726 5724 5721 5718 5715 5712 5708 5704 5700 5696 5692 5688 5683 5679 5675 5671 5666 5662 5658 5654 5650 5646 5642 5639 5636 5633 5631 5628 5626 5624 5622 5621 5619 5617 5616 5615 5614 5613
5727 5724 5721 5718 5716 5713 5710 5707 5703 5700 5696 5691 5687 5683 5679 5674 5670 5665 5660 5656 5652 5647 5643 5639 5635 5631 5628 5625 5622 5619 5617 5615 5613 5611 5609 5608 5607 5605 5604 5603 5602 5602 5602
5714 5712 5709 5706 5703 5699 5695 5692 5687 5683 5679 5674 5670 5665 5660 5656 5652 5647 5641 5637 5633 5628 5624 5620 5616 5613 5610 5608 5605 5603 5601 5599 5597 5595 5594 5593 5593 5592 5591 5591 5590 5590 5590
5702 5699 5695 5692 5688 5684 5680 5676 5671 5666 5661 5656 5652 5647 5642 5638 5633 5628 5623 5618 5614 5610 5606 5602 5599 5596 5593 5591 5589 5587 5585 5584 5582 5581 5580 5580 5579 5579 5579 5579 5579 5579 5579
5688 5684 5681 5677 5673 5669 5664 5659 5654 5649 5644 5639 5635 5629 5624 5619 5615 5610 5605 5600 5596 5592 5589 5585 5582 5580 5578 5576 5574 5573 5571 5570 5569 5568 5567 5567 5567 5568 5568 5568 5568 5569 5569
5674 5670 5666 5661 5657 5652 5647 5642 5637 5632 5627 5622 5618 5612 5607 5602 5597 5593 5589 5584 5580 5576 5573 5570 5568 5566 5564 5562 5561 5560 5559 5558 5557 5556 5556 5556 5556 5557 5558 5558 5559 5559 5560
5659 5654 5650 5645 5640 5636 5631 5626 5621 5616 5611 5606 5601 5596 5591 5586 5582 5577 5573 5569 5565 5562 5559 5557 5555 5553 5552 5550 5550 5549 5549 5548 5547 5546 5546 5547 5547 5548 5549 5549 5550 5551 5551
5643 5638 5634 5629 5624 5619 5615 5610 5605 5600 5595 5590 5585 5581 5576 5572 5568 5563 5559 5555 5552 5549 5547 5545 5544 5542 5541 5540 5540 5539 5539 5539 5538 5538 5538 5538 5539 5539 5540 5541 5542 5543 5543
5627 5622 5618 5613 5608 5604 5599 5595 5590 5585 5581 5576 5572 5567 5563 5559 5555 5551 5547 5544 5541 5539 5537 5535 5534 5533 5532 5532 5531 5531 5531 5530 5530 5530 5530 5531 5531 5532 5533 5533 5534 5535 5535
5612 5607 5603 5598 5594 5589 5585 5581 5576 5572 5568 5563 5559 5555 5551 5547 5543 5540 5537 5534 5532 5530 5528 5527 5526 5525 5525 5524 5524 5523 5523 5523 5523 5523 5524 5524 5525 5525 5526 5526 5527 5528 5528
Wind_Speed
13 14 14 14 14 14 14 14 15 15 15 16 16 17 17 18 18 19 19 20 21 22 22 23 23 24 24 25 26 26 26 26 27 28 29 29 29 29 29 30 32 34 36
15 15 16 16 16 16 17 17 17 18 18 18 19 19 20 20 21 21 22 23 23 24 24 25 25 25 26 27 27 28 28 28 28 28 30 30 31 31 31 31 32 33 35
17 17 18 18 18 19 19 19 20 20 21 21 22 22 22 23 23 23 24 24 25 26 26 27 27 27 28 28 29 29 29 29 29 30 30 31 32 32 32 32 33 33 35
19 19 20 21 21 21 21 22 22 23 24 24 24 25 25 25 26 26 26 27 27 28 28 29 29 29 30 30 31 31 31 31 31 31 31 32 33 33 33 33 33 34 34
20 21 22 22 23 23 24 24 25 26 26 27 27 27 27 28 28 28 29 29 29 30 30 31 31 31 32 32 33 33 33 33 33 33 33 33 34 34 34 34 34 35 35
23 23 24 25 26 26 26 27 28 28 28 29 29 29 29 30 30 31 31 31 31 32 32 32 33 33 33 34 34 35 35 35 35 35 34 35 34 35 35 35 35 35 36
26 26 27 28 28 28 29 30 30 31 31 30 31 31 31 31 32 33 34 34 33 33 34 35 35 36 36 36 36 37 38 38 37 37 36 36 36 36 36 36 36 36 37
28 28 29 30 31 31 31 32 32 33 33 33 34 34 33 33 34 35 35 36 36 36 36 36 37 38 39 39 39 39 39 40 39 39 38 38 38 38 38 38 38 38 38
30 31 31 32 33 34 33 33 34 34 34 35 35 34 34 35 36 37 37 38 38 38 38 38 39 40 40 41 41 41 41 41 41 40 40 40 40 40 40 39 39 39 38
32 33 34 35 35 36 36 36 35 35 35 35 36 36 37 37 38 39 40 40 40 41 41 41 42 42 43 44 44 43 43 43 43 42 42 42 42 41 41 40 40 39 39
35 35 36 37 37 38 38 38 37 38 38 37 38 38 39 40 40 41 42 43 43 43 43 44 45 45 46 46 46 46 46 45 45 44 44 43 43 43 42 41 40 40 39
37 38 38 39 39 39 39 39 40 40 40 40 41 40 41 42 42 44 45 45 46 46 46 47 47 48 48 49 49 48 48 48 47 46 45 45 45 44 43 42 41 40 40
38 38 39 40 41 42 41 41 41 42 42 43 44 44 44 44 45 46 48 48 49 49 49 49 50 51 51 50 50 50 50 49 49 48 46 45 45 45 44 43 42 41 40
39 40 41 42 42 42 42 43 43 43 44 44 45 46 47 47 48 49 51 51 52 52 53 53 53 53 53 52 52 52 52 51 50 48 47 46 45 45 44 43 42 41 40
40 42 43 43 42 42 42 43 44 45 46 47 48 49 50 50 51 53 53 54 55 55 55 55 55 55 54 54 54 53 52 51 50 48 46 45 45 44 43 42 41 40 40
41 43 43 43 43 44 44 46 46 47 48 50 51 52 52 53 54 56 56 56 57 57 57 57 57 57 56 55 54 53 52 51 49 47 46 45 43 42 41 41 40 39 38
41 43 44 44 45 46 47 48 49 50 50 52 53 54 56 57 58 59 59 60 60 60 60 59 59 58 57 56 54 53 51 50 48 46 45 44 43 42 40 39 39 38 37
42 42 44 45 47 48 49 50 51 52 53 54 56 57 58 59 60 61 62 62 61 61 61 60 59 57 55 53 51 50 49 47 46 45 44 42 41 40 39 38 37 36 35
42 43 44 45 47 49 50 52 53 54 55 57 58 59 59 60 60 61 61 62 61 60 59 58 56 54 52 50 48 47 46 45 44 43 41 40 39 38 36 35 35 34 33
43 44 45 47 48 50 52 53 55 56 57 58 58 59 59 59 59 59 60 59 58 56 55 53 52 50 48 46 45 44 43 41 40 39 38 37 36 35 33 33 33 32 31
46 47 48 50 51 53 54 55 56 57 57 58 58 58 58 58 58 57 55 54 53 52 50 48 47 45 43 41 40 39 37 36 36 35 34 33 32 31 31 30 30 29 29
49 50 52 53 54 55 55 56 56 57 57 57 56 56 56 55 54 52 51 50 48 47 44 42 40 38 37 37 35 34 33 32 32 31 31 30 29 29 28 28 28 28 27
51 52 53 54 54 54 55 55 55 54 54 54 53 52 51 50 49 48 46 45 43 40 38 36 34 33 32 32 30 29 29 29 29 27 27 26 26 25 26 26 25 25 25
52 53 53 53 53 53 52 52 52 51 50 49 48 47 46 45 44 43 42 39 37 35 33 31 30 29 28 28 26 25 26 26 25 24 24 24 24 24 23 23 23 23 23
51 51 50 50 50 50 50 49 48 48 47 45 45 44 43 42 40 38 36 33 31 29 28 26 26 25 23 23 22 23 22 21 20 21 20 20 20 20 20 21 21 21 21
48 48 48 47 47 46 46 45 44 43 42 42 41 39 38 37 34 32 29 27 26 25 23 22 22 21 21 20 20 20 20 19 18 18 18 18 18 19 19 19 19 20 20
Wind_Direction
222 225 227 230 233 238 242 248 253 258 263 270 277 283 287 292 296 298 301 304 307 308 308 308 307 307 306 306 306 305 303 301 299 296 294 292 289 284 280 276 273 269 265
234 235 237 239 242 246 250 255 259 262 266 271 276 282 286 290 293 296 299 301 302 304 306 307 307 306 306 306 306 304 303 301 299 296 295 293 291 287 284 281 276 273 270
242 243 244 245 248 252 256 260 264 267 269 272 277 281 285 288 291 293 295 298 299 301 304 304 305 306 306 306 306 305 303 301 300 297 295 294 292 289 287 284 281 277 274
247 247 249 250 253 256 260 264 267 270 272 274 277 281 284 286 289 291 293 296 298 301 302 303 303 304 304 305 305 305 303 301 300 298 296 294 292 290 288 285 282 280 277
252 252 252 254 256 260 263 266 269 272 274 276 279 281 283 285 287 289 292 295 297 300 300 301 301 302 303 303 304 303 303 301 300 298 297 295 293 290 288 286 283 281 279
258 258 258 260 261 263 266 268 270 272 274 277 280 281 282 284 286 288 291 294 296 298 299 300 300 301 301 302 302 303 302 301 299 298 297 296 294 291 289 287 285 283 280
261 262 262 264 265 266 269 270 271 273 275 277 279 280 282 285 287 289 291 293 295 296 298 298 299 300 300 300 301 301 301 300 299 298 297 296 294 292 290 288 286 283 281
263 264 265 266 268 270 270 271 272 274 276 278 280 282 283 286 288 289 290 292 294 295 296 296 298 298 299 299 300 301 300 299 298 297 295 294 293 291 290 288 287 285 282
265 265 266 267 269 271 271 272 274 276 279 281 282 283 285 287 288 289 291 292 293 294 294 295 296 297 298 298 299 299 299 299 297 296 294 293 292 291 289 287 286 285 283
267 268 269 270 271 271 272 274 275 277 279 282 283 284 285 287 288 289 291 292 293 293 294 294 295 296 296 297 297 298 298 297 296 295 294 292 292 290 289 287 285 284 282
267 268 269 270 271 272 274 275 276 278 280 281 283 284 285 287 288 289 290 292 294 293 293 294 294 295 295 296 296 296 296 295 295 293 292 291 291 290 288 286 284 283 281
267 267 269 270 271 273 275 276 278 279 280 281 283 284 286 287 288 290 291 292 293 292 292 293 294 294 294 294 295 295 294 294 293 292 291 290 289 288 287 285 283 281 280
268 270 271 272 272 273 274 276 279 280 281 283 284 285 286 288 289 290 291 292 292 291 292 292 293 293 293 293 293 293 293 293 292 291 290 289 287 287 285 284 281 279 278
270 272 272 274 274 274 275 277 278 280 281 282 283 285 286 287 288 290 290 291 292 291 292 292 292 292 292 292 292 292 292 292 291 290 289 287 286 285 283 282 279 277 276
272 273 273 275 277 276 278 280 281 281 283 284 285 287 287 288 288 289 290 290 291 291 291 291 291 291 291 291 291 291 291 290 290 289 287 286 284 284 282 280 278 276 275
275 277 277 279 282 282 282 283 283 283 284 286 286 288 288 288 289 289 290 290 290 290 290 291 291 290 290 290 290 289 289 288 287 285 285 284 282 281 280 278 277 276 274
281 281 281 281 282 283 284 284 284 285 287 287 288 288 288 289 289 290 290 290 290 290 290 290 290 290 289 289 288 288 287 286 285 283 283 281 279 278 278 276 275 275 273
283 284 283 283 284 285 286 286 287 288 288 289 289 289 289 290 290 290 290 290 290 290 290 290 290 289 288 288 287 286 285 284 283 281 280 279 277 277 276 275 274 273 271
285 286 286 287 287 287 288 288 288 289 290 290 290 290 291 291 291 291 291 291 291 291 291 291 290 289 288 286 285 284 283 282 280 278 277 275 275 274 273 273 273 271 269
287 288 288 288 288 289 289 289 290 290 291 291 291 291 292 292 292 292 292 292 291 291 290 290 289 288 287 285 284 283 281 279 277 276 275 274 273 272 271 271 271 269 267
290 290 290 290 290 290 290 291 291 291 292 292 293 293 293 293 293 293 293 293 292 291 290 289 288 286 285 283 283 282 280 278 276 274 272 271 270 269 267 267 268 266 266
291 291 291 291 292 292 292 292 292 293 293 293 293 293 294 294 294 294 293 293 292 291 290 289 287 285 283 282 280 280 279 278 276 274 271 269 268 266 265 264 264 264 264
291 291 292 292 292 292 293 293 293 293 294 294 295 295 295 296 296 295 295 294 293 290 289 287 285 285 284 281 279 278 278 277 275 273 269 267 265 265 265 264 263 263 263
292 293 293 293 293 293 294 294 294 295 295 295 295 296 297 297 297 297 295 294 292 290 288 286 284 283 281 279 276 274 274 274 272 269 267 264 264 263 262 261 261 261 263
294 294 293 294 294 294 295 295 295 295 296 296 297 297 298 298 298 298 296 293 292 291 288 285 283 282 280 277 274 273 273 271 270 270 267 263 261 259 261 260 260 262 264
294 294 294 295 295 295 296 296 296 296 297 298 298 298 299 299 298 298 296 294 292 290 287 284 283 280 279 277 275 272 269 268 268 269 265 262 261 261 262 261 260 261 263